Location: Villingen
(48.0639°N, 8.4609°E)
Time: 16:59:23
(UTC+01:00)

ISS - Pass Details

Date: 28 March 2017
Orbit: 399 x 409 km, 51.6° (Epoch: 25 March)

Event Time Altitude Azimuth Distance (km) Brightness Sun altitude
Rises 20:55:56 0° 212° (SSW) 2,300 0.2 -11.5°
Reaches altitude 10° 20:58:13 10° 199° (SSW) 1,448 -1.0 -11.8°
Maximum altitude 21:00:56 25° 142° (SE) 861 -2.7 -12.3°
Enters shadow 21:01:46 22° 117° (ESE) 933 -2.6 -12.4°
